PROBA-1 1 26958U 01049B 26035.82207230 .00003521 00000+0 23290-3 0 9993 2 26958 97.9610 39.7793 0054970 209.2325 150.5823 15.06839119323689 CUTE-1 (CO-55) 1 27844U 03031E 26035.54529303 .00000437 00000+0 20853-3 0 9993 2 27844 98.6773 45.7587 0009103 205.0069 155.0670 14.24237133172798 CUBESAT XI-IV (CO-57) 1 27848U 03031J 26035.74894758 .00000368 00000+0 18097-3 0 9998 2 27848 98.6803 45.7788 0008700 223.6821 136.3669 14.23536735172534 APRIZESAT 4 1 35684U 09041D 26035.67624243 .00001081 00000+0 13585-3 0 9994 2 35684 98.1553 108.3084 0044128 32.8424 327.5517 14.83639962891712 APRIZESAT 3 1 35686U 09041F 26035.39804219 .00002839 00000+0 25078-3 0 9990 2 35686 98.1832 182.4629 0062908 144.8812 215.6580 14.95730722896523 PROBA-2 1 36037U 09059B 26035.49962720 .00000372 00000+0 97351-4 0 9997 2 36037 98.2401 220.7008 0012632 335.3154 24.7437 14.54764948862232 APRIZESAT 5 1 37792U 11044E 26035.71314825 .00001683 00000+0 22066-3 0 9991 2 37792 98.2390 325.0927 0053881 69.7822 290.9172 14.80745365779183 APRIZESAT 6 1 37793U 11044F 26035.68643865 .00001087 00000+0 16087-3 0 9991 2 37793 98.2445 303.4508 0043908 148.3148 268.6817 14.76680758777594 PROBA-V 1 39159U 13021A 26035.84184566 .00000093 00000+0 58807-4 0 9995 2 39159 98.3455 21.0758 0004687 146.5845 213.5631 14.23564769662286 APRIZESAT 7 1 39416U 13066A 26035.84588945 .00001993 00000+0 20437-3 0 9996 2 39416 97.7549 351.1354 0034593 291.1927 68.5597 14.91157222661505 APRIZESAT 8 1 39425U 13066K 26035.82485196 .00002003 00000+0 22389-3 0 9999 2 39425 97.8075 345.2924 0046363 3.4927 356.6604 14.87308135659995 BUGSAT-1 (TITA) 1 40014U 14033E 26035.86270973 .00005454 00000+0 30132-3 0 9997 2 40014 98.0479 120.8231 0027755 272.6594 87.1459 15.14052049635803 SAUDISAT 4 1 40016U 14033G 26035.42001439 .00001282 00000+0 17604-3 0 9994 2 40016 97.7350 186.3244 0045787 144.1721 216.2577 14.79314955626443 APRIZESAT 9 1 40018U 14033J 26035.64163679 .00001126 00000+0 17355-3 0 9995 2 40018 97.8831 172.2661 0065078 266.4316 92.9448 14.73995430624036 APRIZESAT 10 1 40019U 14033K 26035.80624076 .00000739 00000+0 12405-3 0 9997 2 40019 97.9437 165.8976 0078505 337.4613 22.3152 14.70695980622799 TECHDEMOSAT-1 (TDS-1) 1 40076U 14037H 26035.68272069 .00013383 00000+0 80918-3 0 9994 2 40076 98.3738 15.0809 0006900 12.7257 347.4143 15.10787735628207 TECHNOSAT 1 42829U 17042E 26035.69734306 .00005064 00000+0 36984-3 0 9990 2 42829 97.4097 198.6127 0017930 180.5648 179.5561 15.03961387466787 FLYING LAPTOP 1 42831U 17042G 26035.83270860 .00005891 00000+0 47345-3 0 9990 2 42831 97.4215 196.9891 0015421 209.1552 150.8813 15.00287207466608 HAWK-A 1 43765U 18099H 26035.69276194 .00009339 00000+0 39645-3 0 9995 2 43765 97.4117 89.7005 0037182 33.6601 326.6986 15.22662515392925 HAWK-B 1 43794U 18099AN 26035.62839243 .00008598 00000+0 38452-3 0 9991 2 43794 97.4165 89.3141 0034483 50.3831 310.0440 15.21006671392879 HAWK-C 1 43799U 18099AT 26035.69101846 .00010545 00000+0 40498-3 0 9992 2 43799 97.4095 89.9960 0043440 35.8090 324.6047 15.25736386393691 SALSAT 1 46495U 20068K 26035.53293740 .00011216 00000+0 41927-3 0 9999 2 46495 97.8827 30.7650 0011853 54.1114 306.1222 15.27468128295091 HAWK-2C 1 47502U 21006CT 26035.64750730 .00009266 00000+0 29542-3 0 9992 2 47502 97.2478 82.6366 0005997 329.0221 31.0666 15.32725705279183 HAWK-2A 1 47505U 21006CW 26035.65103248 .00008061 00000+0 25739-3 0 9998 2 47505 97.2519 83.2395 0005767 333.5245 26.5702 15.32722732279189 HAWK-2B 1 47508U 21006CZ 26035.71306940 .00009326 00000+0 29731-3 0 9993 2 47508 97.2387 81.8553 0006219 329.5642 30.5239 15.32721799279197 HAWK-3B 1 48931U 21059BE 26035.77668037 .00038115 00000+0 49024-3 0 9991 2 48931 97.6708 221.0073 0006451 92.7066 267.4927 15.58964078257155 HAWK-3C 1 48948U 21059BX 26035.51973411 .00045117 00000+0 57996-3 0 9993 2 48948 97.6860 226.1593 0006942 94.3829 265.8219 15.58941005257112 HAWK-3A 1 48957U 21059CG 26035.77630956 .00041794 00000+0 53706-3 0 9997 2 48957 97.6793 223.7558 0006518 92.2324 267.9678 15.58969618257153 HAWK-5C 1 52754U 22057Y 26035.66551048 .00023327 00000+0 47944-3 0 9997 2 52754 97.6414 187.4768 0004983 184.0124 176.1086 15.45983229205836 HAWK-5B 1 52756U 22057AA 26035.79480943 .00022576 00000+0 46400-3 0 9999 2 52756 97.6399 185.9580 0005080 179.1540 180.9718 15.45989929205851 HAWK-5A 1 52757U 22057AB 26035.79455375 .00023282 00000+0 47837-3 0 9991 2 52757 97.6409 186.7887 0005492 180.4397 179.6848 15.45989579205855 HAWK-6B 1 55324U 23011A 26035.72649347 .00007250 00000+0 32430-3 0 9992 2 55324 40.5147 43.8292 0003264 209.5288 150.5337 15.21437570167653 HAWK-6C 1 55326U 23011C 26035.39767792 .00006993 00000+0 31315-3 0 9996 2 55326 40.4834 42.6971 0002930 195.2726 164.7994 15.21431063167618 HAWK-6A 1 55327U 23011D 26035.72589269 .00007216 00000+0 32282-3 0 9998 2 55327 40.4994 42.3499 0002675 202.0260 158.0434 15.21436577167669 HAWK-7A 1 56191U 23054P 26035.66026649 .00008126 00000+0 30126-3 0 9992 2 56191 97.2860 286.3189 0008132 197.8692 162.2263 15.27845069156808 HAWK-7B 1 56193U 23054R 26035.66015188 .00007861 00000+0 29175-3 0 9997 2 56193 97.2905 284.5318 0008198 209.9636 150.1136 15.27819483156805 HAWK-7C 1 56200U 23054Y 26035.65989995 .00007937 00000+0 29450-3 0 9991 2 56200 97.2879 285.3421 0007663 205.7039 154.3821 15.27826373156808